Theta_e
299 299 299 299 299 299 299 298 299 299 299 301 303 303 304 304 305 306 310 312 310 308 306 315 319 318 319 315 314 314 318 320 321 319 319 318 318 317 317 319 320 322 328 335 342
298 298 298 298 298 298 298 298 298 298 298 298 298 299 301 303 304 309 311 310 309 310 306 313 317 318 320 319 314 316 318 320 321 321 319 318 318 318 318 318 318 319 325 338 346
298 298 298 298 297 298 298 298 298 298 298 298 298 298 298 299 308 310 311 314 314 310 311 312 314 317 318 318 317 316 320 321 319 318 317 318 318 317 318 319 319 319 320 333 341
298 298 298 298 298 298 298 298 298 297 297 297 298 298 300 307 309 316 311 314 314 311 314 312 314 316 318 318 317 317 318 318 318 316 316 318 317 318 317 319 318 317 318 326 338
298 298 297 297 297 297 298 298 298 297 298 298 298 302 305 307 308 310 311 316 314 318 315 312 314 316 317 318 317 317 318 316 316 315 315 316 317 317 318 317 316 316 316 318 324
297 298 298 297 298 299 299 300 300 300 300 300 299 306 305 307 305 306 307 312 314 317 317 314 313 314 315 317 318 317 315 316 315 316 315 316 317 316 316 315 315 315 316 317 319
297 298 299 300 300 300 300 300 302 302 302 302 303 306 306 306 302 306 307 308 308 310 317 317 314 313 313 316 315 315 316 317 317 315 316 315 316 316 315 315 316 316 317 317 319
299 299 300 300 299 300 300 302 302 302 302 302 303 307 307 306 304 306 306 307 309 315 313 314 315 314 315 315 315 317 317 318 318 318 317 315 318 319 316 315 315 316 316 317 318
299 300 300 300 300 301 302 302 303 303 303 304 307 306 307 306 307 307 307 307 306 309 313 315 317 316 315 317 318 318 318 317 318 317 318 317 318 319 317 317 317 317 316 317 318
300 300 300 300 301 302 302 302 305 305 307 307 307 307 306 306 307 309 312 309 308 308 307 312 316 319 318 318 321 320 319 320 319 318 317 317 318 319 318 317 318 318 317 318 319
300 300 300 300 302 303 302 306 307 308 307 306 306 306 305 305 306 306 313 311 310 311 310 311 316 319 319 319 318 320 320 319 319 319 318 319 319 320 319 318 318 318 318 319 319
301 301 301 301 302 302 304 306 305 304 305 305 307 307 306 304 304 305 308 312 312 314 312 313 315 316 318 319 319 319 320 320 319 318 318 319 320 319 319 319 318 319 319 319 320
301 301 301 301 302 305 305 305 304 303 304 307 306 306 308 306 307 307 305 311 313 315 314 315 315 314 317 319 319 320 320 321 321 319 317 319 319 319 319 319 318 318 319 320 320
301 302 302 301 306 305 306 304 304 303 307 309 307 309 308 309 310 308 310 308 309 312 315 315 315 315 315 318 319 321 319 319 319 319 320 319 322 321 321 320 320 319 319 319 320
301 302 302 303 303 306 304 304 304 303 314 309 308 309 309 309 310 311 310 308 308 309 311 315 315 315 316 317 319 320 319 318 318 319 320 319 320 323 321 321 320 320 319 319 320
301 302 302 306 306 305 304 305 304 311 313 311 309 310 311 310 312 312 311 309 309 311 310 314 313 315 316 317 318 319 319 319 318 319 319 320 320 322 321 321 320 320 321 324 325
301 302 303 303 305 304 304 307 314 315 311 311 310 310 311 312 312 314 315 315 313 314 314 311 313 315 316 317 318 318 320 322 320 321 322 321 320 322 324 325 321 324 327 328 328
302 302 303 304 304 304 308 313 315 312 311 308 309 310 313 312 312 312 314 317 313 313 312 313 313 314 316 317 319 320 321 321 323 323 322 321 321 323 329 329 328 329 328 328 329
302 303 305 305 304 305 311 315 312 311 308 309 309 312 313 313 313 313 316 316 314 313 316 313 312 313 316 318 318 320 320 320 322 322 322 320 324 329 330 328 328 328 327 325 325
303 304 305 304 304 308 311 308 309 308 308 309 312 312 314 313 314 315 315 316 313 315 316 316 316 314 318 318 318 319 319 320 322 323 323 320 323 323 331 329 327 327 325 324 325
305 307 304 305 306 308 309 308 307 307 308 309 311 312 312 314 312 314 315 315 313 315 314 316 319 316 315 319 320 319 320 320 321 322 323 322 323 326 330 329 327 325 324 325 326
305 308 304 305 308 306 307 305 306 308 308 309 309 309 311 310 313 315 317 312 312 313 314 316 320 319 316 319 318 320 321 321 321 322 322 324 333 329 331 327 325 323 323 323 322
305 305 305 306 307 306 306 307 307 309 309 310 310 308 308 310 312 315 314 312 313 315 317 316 323 324 321 322 321 321 321 320 320 321 325 325 334 327 326 323 321 319 318 318 317
305 307 305 306 305 305 306 308 308 308 309 308 309 309 310 311 312 315 314 313 312 315 317 316 322 321 325 324 323 321 321 320 321 323 324 324 331 328 323 320 318 316 316 315 315
303 306 303 306 306 305 307 307 308 309 307 308 310 309 310 311 313 314 312 313 314 316 315 320 324 320 323 323 324 323 320 320 320 321 324 330 332 327 322 320 318 316 316 316 316
302 303 302 303 304 306 307 308 307 308 308 310 309 309 310 312 313 312 313 314 314 314 313 320 324 322 325 322 321 321 320 320 319 321 326 329 332 324 320 317 316 316 317 317 316
301 301 302 303 306 307 308 306 307 307 307 308 309 310 311 311 309 310 311 312 313 315 312 319 325 326 325 323 323 323 321 319 320 324 327 331 327 320 317 317 316 317 316 315 314
Wind_Speed
20 21 21 21 21 21 21 21 20 20 21 22 23 24 23 24 24 24 28 28 23 18 21 10 12 18 23 20 18 18 11 18 23 19 16 9 13 12 8 13 11 12 7 3 3
21 21 22 22 23 23 24 24 25 24 24 24 25 25 25 25 26 32 32 33 32 28 24 22 20 21 27 27 17 17 17 24 17 13 13 12 13 11 9 13 15 14 10 1 7
23 24 24 24 24 24 25 26 26 25 26 27 27 27 25 21 24 13 10 11 14 24 20 21 20 24 25 25 26 19 24 19 12 16 18 16 13 10 11 14 14 15 15 6 7
24 25 26 27 27 28 29 30 30 30 29 27 27 26 21 10 8 5 6 6 5 13 16 21 23 30 22 22 30 17 27 24 18 16 20 16 16 16 15 15 6 11 11 9 10
26 26 27 28 29 29 29 29 31 33 32 32 30 23 13 16 24 13 14 11 4 12 19 24 28 30 23 21 22 27 17 18 22 17 18 16 16 17 16 14 11 11 13 16 13
26 26 26 27 28 29 29 29 28 28 31 31 31 19 17 26 24 20 22 21 16 16 17 22 21 30 16 23 21 13 26 21 19 25 20 18 17 18 16 15 21 21 19 21 18
28 30 32 33 35 36 36 35 29 31 29 27 25 21 28 39 22 15 14 14 20 26 23 23 23 24 19 12 25 22 13 19 23 19 14 19 22 26 23 20 17 17 17 20 21
31 31 34 36 37 36 33 28 32 30 30 20 19 18 26 18 24 36 33 24 13 14 27 26 24 22 23 13 7 21 19 20 19 23 24 13 18 21 29 26 26 25 22 21 22
32 33 35 37 36 32 27 32 32 26 21 17 7 9 16 11 17 21 26 35 35 24 12 11 22 28 24 19 16 17 19 25 18 18 15 23 15 20 18 25 28 25 23 23 22
33 34 35 37 32 25 30 35 24 20 7 8 1 6 15 16 4 10 8 19 21 25 28 20 16 16 19 20 27 25 22 18 24 19 21 21 20 7 14 23 20 21 21 21 21
34 34 34 34 26 22 34 28 24 12 21 19 24 30 34 35 37 22 5 13 16 17 25 24 19 27 33 30 24 18 21 23 14 14 24 25 21 17 12 13 19 23 20 17 19
35 33 33 32 23 19 21 14 12 13 16 24 19 14 16 16 19 23 13 13 13 16 21 14 30 32 27 26 25 25 15 18 14 12 19 20 21 21 19 16 16 18 19 18 21
37 37 34 29 18 15 15 12 13 12 6 16 6 6 3 3 6 8 22 22 16 19 25 23 19 28 24 25 25 26 20 16 20 15 16 12 18 19 18 21 21 20 19 19 20
39 38 31 21 10 18 12 17 11 10 4 3 3 4 3 7 4 9 8 25 25 24 22 26 21 16 30 29 26 26 22 13 17 18 12 17 10 21 19 18 18 22 20 19 19
40 34 17 18 22 14 17 16 9 3 5 12 3 2 15 19 20 13 13 5 26 26 17 22 23 24 25 28 27 22 21 15 14 14 7 16 9 16 21 20 19 19 24 19 14
42 25 15 15 13 16 18 13 2 4 4 15 12 24 22 23 9 14 7 16 5 22 27 24 18 17 21 25 26 21 25 19 14 10 10 15 16 15 15 20 19 20 13 12 11
42 18 15 25 17 20 15 4 5 5 20 11 23 25 20 13 10 9 8 8 5 7 21 24 26 18 16 22 21 26 25 14 13 11 13 21 13 4 12 3 16 14 14 10 10
35 9 17 22 23 18 9 5 5 15 16 20 18 25 6 13 10 7 8 5 10 12 13 21 23 25 18 21 19 32 31 19 32 20 16 18 11 12 13 8 8 12 11 11 12
28 2 12 23 17 13 9 4 7 11 13 12 20 14 12 16 13 7 5 4 3 14 8 18 18 23 19 18 24 32 27 24 17 17 15 11 7 7 16 11 13 15 16 16 16
21 4 12 26 11 9 5 3 6 7 13 8 5 7 19 17 13 14 7 3 1 14 6 6 11 27 21 24 25 23 28 20 11 23 18 14 17 11 17 14 14 14 18 20 22
12 5 14 21 10 9 4 7 13 25 21 4 7 6 12 8 11 8 5 3 2 5 5 9 11 18 24 15 26 19 20 18 12 12 10 12 13 9 20 18 18 16 21 25 27
12 3 18 24 9 6 8 14 17 19 28 6 5 5 4 11 6 7 7 4 14 9 9 6 5 20 30 17 25 22 29 24 14 14 10 11 7 4 19 16 20 24 25 27 28
16 5 12 19 6 9 12 10 14 20 18 6 4 3 4 5 5 11 9 10 15 5 5 4 6 18 6 7 21 25 25 21 14 10 9 13 8 10 16 17 23 27 28 28 29
11 5 7 9 4 14 15 11 16 23 14 13 11 10 12 8 5 7 15 5 23 8 9 4 10 15 10 18 23 28 30 23 14 13 16 11 18 17 17 19 21 26 29 29 28
12 6 5 8 10 14 15 12 20 14 8 12 4 13 19 6 8 6 10 13 12 10 7 3 11 6 9 18 24 28 28 27 16 12 15 20 23 20 20 20 24 29 30 30 28
8 7 9 14 17 15 11 12 17 23 11 9 6 20 19 7 7 16 15 6 4 9 8 8 7 10 10 16 23 26 25 22 16 2 7 25 21 18 25 29 27 27 29 29 27
11 10 8 12 11 10 9 18 22 20 11 21 22 19 13 12 24 31 26 16 11 6 6 6 7 9 7 22 13 12 23 23 11 2 17 23 18 25 20 20 24 27 26 26 24
Wind_Direction
351 349 347 345 342 338 335 332 327 323 319 313 309 306 304 301 296 291 270 266 271 255 244 221 196 199 200 208 209 215 230 234 234 220 240 218 222 215 230 235 210 200 245 0 205
355 351 348 346 343 339 334 330 328 326 320 314 310 308 306 306 304 281 278 270 262 249 229 204 201 190 194 206 203 207 225 235 240 225 232 207 226 182 207 212 218 219 208 164 160
351 348 344 340 338 334 330 326 323 319 315 311 309 308 305 313 308 277 270 226 238 219 209 207 206 199 206 206 201 218 237 232 240 223 234 242 221 213 229 237 205 215 207 206 191
349 344 340 338 336 332 329 326 322 319 315 310 305 301 301 298 275 296 233 201 156 182 196 198 201 202 218 208 212 242 224 245 231 227 237 238 239 235 224 230 225 217 237 231 215
347 343 340 336 332 328 325 323 320 316 313 308 304 296 291 250 242 270 252 242 221 188 197 195 200 201 214 213 221 220 240 228 233 235 229 239 233 237 221 221 230 235 241 233 231
347 342 338 333 330 328 325 323 323 316 306 298 290 280 252 250 256 258 249 244 238 218 209 200 209 207 226 236 221 215 232 235 232 232 231 235 228 232 233 246 248 250 242 235 228
347 346 341 340 338 337 334 333 337 327 324 310 284 261 245 241 257 270 247 245 236 226 217 209 209 202 218 242 231 248 243 230 229 220 225 234 245 239 240 237 233 218 223 228 227
349 345 341 339 337 335 333 337 335 326 326 320 297 254 252 267 258 257 246 240 237 214 220 224 219 227 229 223 226 215 223 232 215 220 221 209 249 216 224 222 223 231 238 230 227
348 343 340 337 338 336 339 336 332 324 324 341 298 221 264 283 252 268 247 239 232 222 210 205 210 216 217 220 219 199 217 221 214 200 203 210 239 235 205 216 224 225 226 226 220
346 342 338 337 339 339 338 338 339 319 337 329 211 223 256 263 340 306 279 224 216 223 222 224 208 199 216 202 214 206 216 221 214 179 215 203 233 165 217 204 212 210 213 216 216
344 339 335 337 339 337 339 346 348 323 309 289 274 272 279 271 285 281 267 176 196 202 198 202 210 210 204 210 224 216 210 224 205 185 212 217 217 215 171 190 218 222 216 217 216
343 339 333 335 333 331 353 354 339 304 304 307 270 276 286 276 270 261 257 186 201 197 197 173 219 217 216 210 217 230 228 209 187 182 207 208 218 231 226 224 215 215 206 202 203
345 341 333 335 333 345 339 340 327 324 281 295 268 255 331 185 246 276 222 225 212 220 193 203 225 229 222 218 210 218 220 200 202 190 216 192 217 228 230 228 220 215 209 193 189
346 343 338 344 354 327 339 333 323 321 292 273 213 229 236 286 252 225 199 237 237 236 207 225 222 210 212 215 202 206 204 192 202 182 195 204 215 206 216 205 212 210 203 198 195
349 344 357 352 332 332 324 326 307 329 304 7 19 321 299 283 275 223 214 222 222 219 235 217 217 216 205 212 197 215 187 196 174 199 184 189 242 186 205 204 202 203 200 192 185
349 345 355 351 332 326 321 319 293 228 331 334 325 329 316 321 329 119 147 187 237 245 222 230 207 221 213 204 204 201 183 197 196 204 213 205 219 170 192 207 197 193 174 178 182
349 341 357 348 330 326 327 309 279 347 336 343 322 331 318 303 326 192 218 198 172 162 212 215 228 204 206 187 193 206 164 176 188 192 218 199 196 358 127 185 170 163 165 158 164
350 354 355 350 331 333 338 256 308 353 343 322 322 312 296 348 333 314 289 262 185 207 192 200 206 213 187 200 182 197 181 180 180 192 184 182 206 161 107 102 125 116 131 125 125
351 81 8 345 338 343 313 351 340 339 329 312 313 316 344 360 337 308 263 288 234 206 175 201 211 190 194 187 184 187 201 200 193 191 161 168 132 122 122 122 132 127 115 110 114
352 334 352 349 350 354 356 339 331 329 311 287 297 328 323 342 331 330 301 75 272 209 272 202 202 186 179 190 191 194 198 207 225 178 172 177 178 155 160 146 134 122 119 118 113
355 303 344 358 358 356 29 334 316 329 347 294 287 292 312 326 311 298 312 9 138 261 170 264 191 178 190 193 190 196 196 206 216 189 177 166 172 127 151 149 139 130 125 119 112
358 319 348 4 30 19 355 323 297 327 341 316 288 266 285 316 285 297 334 354 297 271 158 231 182 172 192 175 198 206 201 203 204 185 202 162 110 284 114 134 131 126 120 115 113
343 323 344 16 32 356 332 312 340 335 338 328 289 255 292 293 303 312 335 306 325 307 163 208 206 158 177 215 202 182 206 192 201 197 186 171 133 102 114 116 124 123 119 117 116
346 338 350 359 63 351 332 337 340 344 324 323 291 287 328 304 251 296 329 311 317 274 253 233 188 161 205 185 178 188 190 193 184 191 181 184 137 137 129 129 128 125 122 121 118
13 13 358 321 334 336 331 329 339 347 319 325 278 323 327 295 305 333 322 320 313 356 350 252 164 107 290 149 168 189 189 190 190 206 187 139 148 146 143 140 136 132 129 125 120
19 350 319 289 303 332 344 343 329 330 321 311 293 314 313 294 290 309 313 313 305 329 335 317 140 141 153 140 177 174 179 190 193 175 163 145 130 133 131 130 132 135 135 127 123
354 334 297 301 319 334 347 329 326 325 307 319 320 314 308 307 306 297 290 276 266 303 329 318 149 171 131 136 147 180 176 181 149 254 150 149 130 130 131 133 135 136 129 127 125